When you browse on this site, cookies collect data to enhance your experience and personalize the content and advertising you see.
Visit our Privacy Policy to learn more. By continuing to use the site, you agree to this use of cookies and data.
  • In Hungary
  • List of Countries
  • For 7 days
  • Water Temperature
  • Satellite Maps
  • Weather Map
  • News
  • Weather Widgets
  • user-avatar
    Login

    Hourly Weather Buradow

    Today, 21 May, Tuesday

    Time Temperature Precipitation Wind Pressure Humidity
    00:00 +17°C° 0 mm 2 mps 742 mmHg 95%
    01:00 +16°C° 0 mm 1 mps 742 mmHg 95%
    02:00 +16°C° 0 mm 1 mps 742 mmHg 95%
    03:00 +16°C° 0 mm 1 mps 742 mmHg 96%
    04:00 +15°C° 0 mm 2 mps 741 mmHg 96%
    05:00 +15°C° 0 mm 2 mps 741 mmHg 96%
    06:00 +16°C° 0 mm 3 mps 741 mmHg 94%
    07:00 +17°C° 0 mm 4 mps 741 mmHg 92%
    08:00 +17°C° 0 mm 5 mps 741 mmHg 90%
    09:00 +17°C° 0.1 mm 5 mps 741 mmHg 89%
    10:00 +17°C° 0.1 mm 5 mps 740 mmHg 87%
    11:00 +17°C° 0.1 mm 5 mps 740 mmHg 86%
    12:00 +19°C° 0.3 mm 6 mps 740 mmHg 82%
    13:00 +18°C° 0.3 mm 7 mps 740 mmHg 77%
    14:00 +20°C° 0.3 mm 8 mps 740 mmHg 73%
    15:00 +18°C° 0 mm 8 mps 740 mmHg 74%
    16:00 +17°C° 0 mm 8 mps 740 mmHg 75%
    17:00 +16°C° 0 mm 8 mps 740 mmHg 77%
    18:00 +15°C° 0 mm 8 mps 740 mmHg 78%
    19:00 +15°C° 0 mm 7 mps 740 mmHg 80%
    20:00 +14°C° 0 mm 7 mps 740 mmHg 82%
    21:00 +14°C° 0.1 mm 7 mps 740 mmHg 83%
    22:00 +14°C° 0.1 mm 7 mps 740 mmHg 84%
    23:00 +14°C° 0.1 mm 7 mps 740 mmHg 86%

    Tomorrow, 22 May, Wednesday

    Time Temperature Precipitation Wind Pressure Humidity
    00:00 +13°C° 0.1 mm 6 mps 740 mmHg 87%
    01:00 +13°C° 0.1 mm 6 mps 740 mmHg 88%
    02:00 +13°C° 0.1 mm 6 mps 740 mmHg 89%
    03:00 +13°C° 0.5 mm 5 mps 740 mmHg 90%
    04:00 +13°C° 0.5 mm 5 mps 740 mmHg 92%
    05:00 +13°C° 0.5 mm 5 mps 740 mmHg 93%
    06:00 +14°C° 0.1 mm 5 mps 741 mmHg 92%
    07:00 +14°C° 0.1 mm 4 mps 741 mmHg 90%
    08:00 +15°C° 0.1 mm 4 mps 741 mmHg 89%
    09:00 +15°C° 0.5 mm 5 mps 741 mmHg 86%
    10:00 +16°C° 0.5 mm 5 mps 741 mmHg 83%
    11:00 +17°C° 0.5 mm 5 mps 742 mmHg 80%
    12:00 +17°C° 0.3 mm 5 mps 741 mmHg 78%
    13:00 +17°C° 0.3 mm 5 mps 741 mmHg 77%
    14:00 +19°C° 0.3 mm 5 mps 741 mmHg 76%
    15:00 +19°C° 0.1 mm 4 mps 741 mmHg 75%
    16:00 +19°C° 0.1 mm 4 mps 741 mmHg 75%
    17:00 +19°C° 0.1 mm 3 mps 741 mmHg 75%
    18:00 +18°C° 0.1 mm 3 mps 741 mmHg 79%
    19:00 +17°C° 0.1 mm 2 mps 741 mmHg 83%
    20:00 +16°C° 0.1 mm 2 mps 741 mmHg 88%
    21:00 +15°C° 0 mm 2 mps 741 mmHg 90%
    22:00 +15°C° 0 mm 2 mps 742 mmHg 92%
    23:00 +14°C° 0 mm 2 mps 742 mmHg 94%

    Day after tomorrow, 23 May, Thursday

    Time Temperature Precipitation Wind Pressure Humidity
    00:00 +13°C° 0 mm 2 mps 742 mmHg 95%
    01:00 +13°C° 0 mm 1 mps 742 mmHg 95%
    02:00 +12°C° 0 mm 1 mps 742 mmHg 96%
    03:00 +12°C° 0 mm 1 mps 742 mmHg 96%
    04:00 +11°C° 0 mm 0 mps 742 mmHg 96%
    05:00 +11°C° 0 mm 0 mps 742 mmHg 97%
    06:00 +13°C° 0 mm 1 mps 743 mmHg 93%
    07:00 +15°C° 0 mm 1 mps 743 mmHg 89%
    08:00 +16°C° 0 mm 1 mps 743 mmHg 86%
    09:00 +19°C° 0.5 mm 1 mps 743 mmHg 81%
    10:00 +20°C° 0.5 mm 1 mps 743 mmHg 77%
    11:00 +21°C° 0.5 mm 1 mps 744 mmHg 73%
    12:00 +22°C° 0.8 mm 1 mps 744 mmHg 71%
    13:00 +21°C° 0.8 mm 2 mps 743 mmHg 69%
    14:00 +23°C° 0.8 mm 2 mps 743 mmHg 67%
    15:00 +21°C° 1.7 mm 3 mps 744 mmHg 72%
    16:00 +20°C° 1.7 mm 4 mps 744 mmHg 76%
    17:00 +19°C° 1.7 mm 6 mps 744 mmHg 81%
    18:00 +17°C° 1.3 mm 6 mps 744 mmHg 85%
    19:00 +16°C° 1.3 mm 7 mps 744 mmHg 89%
    20:00 +15°C° 1.3 mm 7 mps 744 mmHg 93%
    21:00 +15°C° 0.5 mm 7 mps 745 mmHg 93%
    22:00 +14°C° 0.5 mm 6 mps 745 mmHg 93%
    23:00 +13°C° 0.5 mm 6 mps 745 mmHg 94%

    24 May, Friday

    Time Temperature Precipitation Wind Pressure Humidity
    00:00 +13°C° 0.3 mm 6 mps 745 mmHg 94%
    01:00 +11°C° 0.3 mm 6 mps 745 mmHg 94%
    02:00 +11°C° 0.3 mm 6 mps 745 mmHg 94%
    03:00 +10°C° 0.1 mm 6 mps 745 mmHg 94%
    04:00 +10°C° 0.1 mm 5 mps 745 mmHg 93%
    05:00 +9°C° 0.1 mm 5 mps 745 mmHg 92%
    06:00 +9°C° 0.2 mm 5 mps 746 mmHg 92%
    07:00 +9°C° 0.2 mm 5 mps 746 mmHg 91%
    08:00 +10°C° 0.2 mm 5 mps 746 mmHg 91%
    09:00 +10°C° 0.2 mm 5 mps 746 mmHg 90%
    10:00 +10°C° 0.2 mm 5 mps 746 mmHg 89%
    11:00 +12°C° 0.2 mm 4 mps 746 mmHg 89%
    12:00 +13°C° 0.2 mm 4 mps 746 mmHg 87%
    13:00 +14°C° 0.2 mm 4 mps 746 mmHg 85%
    14:00 +14°C° 0.2 mm 3 mps 746 mmHg 83%
    15:00 +16°C° 0.1 mm 3 mps 745 mmHg 82%
    16:00 +17°C° 0.1 mm 3 mps 745 mmHg 80%
    17:00 +17°C° 0.1 mm 3 mps 745 mmHg 79%
    18:00 +17°C° 0 mm 3 mps 745 mmHg 80%
    19:00 +16°C° 0 mm 2 mps 745 mmHg 81%
    20:00 +16°C° 0 mm 2 mps 744 mmHg 82%
    21:00 +15°C° 0 mm 2 mps 745 mmHg 83%
    22:00 +14°C° 0 mm 2 mps 745 mmHg 83%
    23:00 +13°C° 0 mm 2 mps 745 mmHg 83%

    25 May, Saturday

    Time Temperature Precipitation Wind Pressure Humidity
    00:00 +13°C° 0 mm 2 mps 745 mmHg 86%
    01:00 +12°C° 0 mm 2 mps 745 mmHg 88%
    02:00 +10°C° 0 mm 2 mps 745 mmHg 90%
    03:00 +10°C° 0 mm 2 mps 745 mmHg 91%
    04:00 +10°C° 0 mm 2 mps 745 mmHg 91%
    05:00 +11°C° 0 mm 1 mps 745 mmHg 92%
    06:00 +12°C° 0 mm 2 mps 745 mmHg 88%
    07:00 +14°C° 0 mm 2 mps 745 mmHg 84%
    08:00 +16°C° 0 mm 2 mps 745 mmHg 80%
    09:00 +17°C° 0 mm 3 mps 745 mmHg 75%
    10:00 +18°C° 0 mm 3 mps 745 mmHg 70%
    11:00 +20°C° 0 mm 3 mps 744 mmHg 66%
    12:00 +20°C° 0.1 mm 4 mps 744 mmHg 63%
    13:00 +21°C° 0.1 mm 4 mps 744 mmHg 61%
    14:00 +21°C° 0.1 mm 4 mps 744 mmHg 59%
    15:00 +21°C° 0.3 mm 5 mps 744 mmHg 62%
    16:00 +21°C° 0.3 mm 5 mps 743 mmHg 65%
    17:00 +21°C° 0.3 mm 5 mps 743 mmHg 68%
    18:00 +20°C° 0.2 mm 4 mps 743 mmHg 74%
    19:00 +18°C° 0.2 mm 3 mps 743 mmHg 80%
    20:00 +17°C° 0.2 mm 2 mps 743 mmHg 86%
    21:00 +16°C° 0 mm 2 mps 743 mmHg 88%
    22:00 +15°C° 0 mm 2 mps 744 mmHg 90%
    23:00 +13°C° 0 mm 3 mps 744 mmHg 92%

    26 May, Sunday

    Time Temperature Precipitation Wind Pressure Humidity
    00:00 +14°C° 0 mm 2 mps 744 mmHg 93%
    01:00 +13°C° 0 mm 2 mps 744 mmHg 93%
    02:00 +13°C° 0 mm 2 mps 744 mmHg 94%
    03:00 +13°C° 0 mm 2 mps 744 mmHg 94%
    04:00 +13°C° 0 mm 2 mps 744 mmHg 94%
    05:00 +12°C° 0 mm 2 mps 744 mmHg 95%
    06:00 +14°C° 0 mm 2 mps 745 mmHg 91%
    07:00 +15°C° 0 mm 2 mps 745 mmHg 87%
    08:00 +17°C° 0 mm 2 mps 745 mmHg 84%
    09:00 +16°C° 0.8 mm 3 mps 745 mmHg 86%
    10:00 +14°C° 0.8 mm 3 mps 745 mmHg 88%
    11:00 +13°C° 0.8 mm 3 mps 745 mmHg 91%
    12:00 +13°C° 0.3 mm 3 mps 745 mmHg 89%
    13:00 +14°C° 0.3 mm 2 mps 745 mmHg 88%
    14:00 +14°C° 0.3 mm 2 mps 745 mmHg 86%
    15:00 +14°C° 0 mm 3 mps 745 mmHg 83%
    16:00 +16°C° 0 mm 3 mps 745 mmHg 79%
    17:00 +17°C° 0 mm 3 mps 744 mmHg 76%
    18:00 +16°C° 0.1 mm 3 mps 744 mmHg 80%
    19:00 +16°C° 0.1 mm 3 mps 744 mmHg 84%
    20:00 +14°C° 0.1 mm 4 mps 745 mmHg 88%
    21:00 +13°C° 0.1 mm 3 mps 745 mmHg 90%
    22:00 +11°C° 0.1 mm 3 mps 745 mmHg 91%
    23:00 +10°C° 0.1 mm 3 mps 746 mmHg 93%
    Show more